Location: Sommers-Bausch Observatory
(40.0037°N, 105.2635°W)
Time: 04:27:41
(UTC-06:00)

Daily predictions for brighter satellites

Satellite Brightness Start Highest point End
(mag) Time Altitude Azimuth Time Altitude Azimuth Time Altitude Azimuth
Cosmos 2098 Rocket 3.8 00:07:35 10° N 00:12:10 60° ENE 00:12:10 60° ENE
Cosmos 2322 Rocket 2.1 00:10:14 10° NNW 00:15:59 87° WSW 00:16:00 87° SW
Lacrosse 5 rocket 2.4 00:11:31 10° NW 00:15:49 48° NNE 00:15:49 48° NNE
Cosmos 1470 4.1 00:14:11 10° NNW 00:16:51 39° NNW 00:16:51 39° NNW
Meteor 1-16 Rocket 4.2 00:13:49 10° N 00:19:07 64° ENE 00:19:07 64° ENE
SME Rocket 3.7 00:20:39 63° WNW 00:20:39 63° WNW 00:24:25 10° NNW
Cosmos 1707 4.3 00:26:41 34° NNW 00:26:41 34° NNW 00:29:04 10° N
USA 32 4.1 00:34:35 75° NW 00:34:35 75° NW 00:39:31 10° N
CZ-2C R/B 2.6 00:29:07 10° NNE 00:34:42 86° WNW 00:34:42 86° WNW
ATLAS 2AS CENTAUR R/B 4.5 00:29:27 10° NNW 00:36:29 31° NE 00:43:09 10° E
Cosmos 1934 Rocket 4.3 00:31:00 10° NNW 00:37:09 53° W 00:37:46 51° WSW
NOSS 3-1 (A) 4.0 00:29:31 10° NW 00:37:16 89° WSW 00:39:17 57° SSE
Meteor 1-24 Rocket 3.8 00:38:42 69° E 00:38:43 69° E 00:44:43 10° NNE
Cosmos 2219 Rocket 4.3 00:42:07 10° N 00:46:11 19° NE 00:49:22 13° E
ATLAS CENTAUR R/B 3.6 00:46:11 10° NW 00:47:05 16° NW 00:47:05 16° NW
Cosmos 1842 Rocket 4.4 00:45:29 10° N 00:48:51 50° NNW 00:48:51 50° NNW
Cosmos 2100 Rocket 4.1 00:48:47 10° N 00:54:54 62° E 00:55:24 59° ESE
SL-16 R/B 3.4 01:03:12 10° NW 01:07:17 30° W 01:07:17 30° W
Cosmos 2061 Rocket 3.9 01:07:55 10° N 01:14:09 74° E 01:14:41 70° ESE
Cosmos 407 Rocket 4.4 01:18:35 38° E 01:18:35 38° E 01:22:40 10° NE
In-Cosmos 22 4.1 01:19:24 75° NW 01:19:24 75° NW 01:24:41 10° N
CZ-2C R/B 4.2 01:20:17 33° W 01:20:17 33° W 01:24:53 10° NNW
ALOS 2 4.5 01:21:51 22° WNW 01:21:51 22° WNW 01:24:07 10° NW
Cosmos 2123 Rocket 4.4 01:20:10 47° ESE 01:20:46 49° E 01:26:41 10° NNE
Cosmos 2227 Rocket 3.9 01:22:51 20° E 01:22:51 20° E 01:26:45 10° NE
H-2A R/B 3.7 01:20:35 10° NNE 01:23:39 40° NE 01:23:39 40° NE
Meteor 2-1 Rocket 4.4 01:21:11 10° NNW 01:26:57 62° W 01:26:57 62° W
ISS -1.0 01:28:13 10° NNW 01:30:11 19° N 01:30:11 19° N
SeaSat 1 3.9 01:33:27 27° WNW 01:33:27 27° WNW 01:36:19 10° NW
Cosmos 1992 Rocket 4.1 01:27:30 10° NNW 01:32:04 66° NW 01:32:04 66° NW
Cosmos 2322 4.0 01:28:19 10° NNW 01:33:14 56° W 01:33:14 56° W
Cosmos 1340 Rocket 4.2 01:37:38 36° N 01:37:38 36° N 01:40:07 10° N
USA 267 4.3 01:31:22 10° NE 01:37:24 42° NNW 01:42:34 14° W
Cosmos 2237 4.1 01:31:56 10° NNW 01:37:22 75° W 01:37:22 75° W
Cosmos 1190 Rocket 4.1 01:38:02 70° ENE 01:38:02 70° ENE 01:43:00 10° NNE
Meteor 1-21 Rocket 4.2 01:37:42 78° SE 01:37:57 80° E 01:43:51 10° NNE
Lacrosse 5 3.8 01:35:59 16° WNW 01:38:47 26° NNW 01:43:01 10° NNE
Okean 3 Rocket 4.4 01:41:26 46° NW 01:41:26 46° NW 01:45:02 10° N
Cosmos 2219 3.1 01:46:23 80° W 01:46:30 81° WNW 01:52:09 10° NNE
Cosmos 1356 Rocket 4.4 01:48:09 42° NNE 01:48:09 42° NNE 01:51:02 10° NNE
Cosmos 1408 Rocket 4.2 01:48:01 54° NNE 01:48:01 54° NNE 01:51:27 10° N
Cosmos 2360 Rocket 3.1 01:42:10 10° NW 01:46:21 35° W 01:46:21 35° W
CZ-4B R/B 4.2 01:50:23 14° NNW 01:50:23 14° NNW 01:50:54 10° NNW
Cosmos 1725 Rocket 4.0 01:42:44 10° N 01:49:06 76° E 01:50:08 62° SE
COSMOS 2428 2.6 01:46:07 10° NNW 01:51:52 80° WSW 01:51:54 80° WSW
Cosmos 2173 Rocket 4.3 01:48:32 10° NNW 01:54:22 48° W 01:54:32 48° W
Lacrosse 5 rocket 4.2 01:51:18 10° WNW 01:51:30 11° WNW 01:51:30 11° WNW
Cosmos 1766 Rocket 4.1 01:56:11 56° N 01:56:11 56° N 01:59:43 10° N
SL-08 R/B 4.3 01:49:57 10° N 01:56:06 80° W 01:56:43 72° SSW
Cosmos 2333 4.0 01:52:36 10° NNW 01:58:21 79° WSW 01:58:24 79° WSW
Cosmos 2221 4.1 01:57:23 10° NNW 01:59:51 26° NW 01:59:51 26° NW
Cosmos 1626 4.3 02:09:46 19° E 02:09:46 19° E 02:12:12 10° NE
USA 234 3.1 02:08:35 40° SE 02:11:12 80° SW 02:17:47 10° NW
Cosmos 1242 Rocket 4.2 02:10:00 10° NNW 02:11:54 29° NNW 02:11:54 29° NNW
DELTA 2 R/B (1) 4.3 02:15:06 39° ESE 02:15:06 39° ESE 02:19:06 10° E
Cosmos 1515 Rocket 3.9 02:11:16 10° N 02:15:32 58° ENE 02:15:32 58° ENE
PSLV R/B 3.9 02:11:51 10° N 02:15:27 60° NNW 02:15:27 60° NNW
Meteor 2-2 Rocket 4.1 02:10:40 10° N 02:16:20 88° E 02:17:03 69° SSE
Cosmos 1743 Rocket 3.7 02:16:44 71° NE 02:16:44 71° NE 02:20:47 10° N
Cosmos 614 Rocket 4.3 02:18:52 50° ESE 02:19:18 52° ESE 02:24:23 10° NNE
NOSS 2-1 (D) 4.0 02:22:14 49° ENE 02:22:14 49° ENE 02:25:28 10° NE
NOSS 2-1 (C) 4.0 02:22:23 48° ENE 02:22:23 48° ENE 02:25:36 10° NE
Cosmos 1140 Rocket 3.4 02:22:02 67° SE 02:22:24 70° ESE 02:27:36 10° NNE
Cosmos 2333 Rocket 2.1 02:18:24 10° NNW 02:24:09 89° ENE 02:25:16 60° SSE
Aureole 2 Rocket 3.4 02:24:07 10° N 02:28:08 55° ENE 02:28:14 55° ENE
Cosmos 2151 3.3 02:28:22 58° E 02:28:22 58° E 02:32:21 10° NNE
ATLAS 2AS CENTAUR R/B 2.8 02:20:17 10° NW 02:28:15 73° WSW 02:31:13 40° SSE
Cosmos 2297 Rocket 2.4 02:27:30 51° SE 02:28:24 58° ESE 02:33:56 10° NNE
Cosmos 2219 Rocket 2.1 02:25:00 10° NNW 02:30:38 66° WSW 02:31:03 64° SW
Cosmos 1980 3.7 02:26:18 10° NNW 02:32:01 79° ENE 02:33:55 44° SE
NOSS 3-3 (A) 4.2 02:33:08 46° WSW 02:34:52 65° NW 02:41:30 10° NNE
NOSS 3-3 (C) 4.2 02:33:15 47° WSW 02:34:59 65° NW 02:41:35 10° NNE
Cosmos 1726 3.6 02:31:45 10° NNW 02:34:01 31° NW 02:34:01 31° NW
Cosmos 1850 Rocket 4.3 02:36:33 49° SE 02:37:24 55° ESE 02:42:28 10° NNE
SL-14 R/B 3.8 02:38:17 52° NW 02:38:17 52° NW 02:41:44 10° N
Cosmos 1741 Rocket 4.2 02:43:11 50° SSE 02:44:17 62° ESE 02:49:33 10° NNE
NOSS 2-1 (E) 3.4 02:44:38 74° N 02:44:38 74° N 02:48:39 10° NNE
NPP 3.7 02:40:09 10° NNE 02:45:33 74° ESE 02:46:52 51° S
Cosmos 1328 Rocket 4.2 02:41:44 10° NNW 02:45:23 42° WNW 02:45:23 42° WNW
Cosmos 1151 Rocket 2.9 02:43:34 10° N 02:47:56 81° W 02:47:57 81° WSW
Cosmos 1300 3.9 02:44:23 10° NNW 02:46:53 32° NW 02:46:53 32° NW
SL-16 R/B 3.4 02:43:24 12° SE 02:48:51 47° ENE 02:54:43 10° N
Cosmos 2237 Rocket 2.0 02:44:57 10° NNW 02:50:35 80° WSW 02:52:19 46° S
SL-16 R/B 3.2 02:46:47 10° NNW 02:52:15 45° ENE 02:57:39 10° SE
Meteor 2-10 4.1 02:50:45 10° NNW 02:55:44 54° W 02:56:17 51° WSW
Helios 1A Rocket 3.9 02:55:08 10° N 02:58:55 34° WNW 02:58:56 34° WNW
CBERS-1 3.9 02:54:15 10° NNE 02:59:24 90° SSE 03:00:41 52° SSW
Cosmos 1570 Rocket 4.1 02:56:17 10° NNW 03:01:40 75° ENE 03:04:42 26° SSE
Resurs 1-4 Rocket 2.9 02:57:10 10° NNE 03:02:17 46° E 03:04:44 27° SSE
CZ-3B DEB 4.5 02:54:53 31° SSW 03:02:58 70° SE 03:17:13 10° NE
Cosmos 2228 Rocket 4.2 03:00:02 10° NNW 03:03:32 30° WNW 03:03:32 30° WNW
ATLAS 3B CENTAUR R/B 4.1 02:45:34 10° WSW 03:04:43 45° SSW 03:11:57 10° ESE
Cosmos 2227 Rocket 2.5 03:04:40 40° WSW 03:06:18 54° WNW 03:11:53 10° NNE
ARIANE 5 R/B 3.3 03:01:37 10° NNE 03:06:29 44° E 03:08:48 27° SSE
Cosmos 2034 Rocket 4.4 03:01:06 10° N 03:07:25 63° E 03:12:21 17° SSE
Cosmos 2058 3.1 03:08:23 52° W 03:08:29 52° W 03:12:31 10° N
UNK 4.0 03:12:55 25° SSE 03:15:30 65° ENE 03:20:05 10° N
Cosmos 1707 Rocket 4.1 03:11:56 10° N 03:16:15 54° E 03:18:44 24° SSE
COBE Rocket 3.9 03:12:43 10° NNE 03:17:21 66° E 03:19:08 36° S
CZ-2D R/B 2.2 03:18:51 10° NNE 03:24:05 72° ESE 03:26:43 30° S
Tsikada Rocket 4.3 03:21:33 22° S 03:25:44 69° E 03:32:07 10° NNE
Cosmos 1666 Rocket 3.7 03:28:05 34° S 03:29:56 73° E 03:34:24 10° NNE
Cosmos 1455 2.2 03:26:40 10° NNW 03:30:31 63° W 03:31:12 52° SW
SL-08 R/B 4.0 03:36:01 34° SW 03:37:01 37° W 03:41:37 10° NNW
IRS-1C 4.5 03:33:46 10° N 03:38:56 51° WNW 03:41:16 30° SW
Lacrosse 4 Rocket 1.3 03:39:11 40° SSW 03:40:36 87° ESE 03:44:50 10° NNE
Cosmos 1626 3.5 03:44:25 23° W 03:44:41 23° WNW 03:47:43 10° NNW
ORS 1 (USA 231) 4.4 03:44:32 61° S 03:44:42 62° SSE 03:47:45 10° E
Spot 4 Rocket 4.1 03:40:23 10° N 03:45:29 63° WNW 03:48:05 29° SW
Cosmos 1805 Rocket 4.0 03:44:59 34° SW 03:46:27 47° W 03:50:44 10° N
Cosmos 468 Rocket 4.0 03:43:53 10° NNW 03:49:07 84° ENE 03:54:15 10° SSE
Cosmos 371 Rocket 4.3 03:46:13 10° N 03:50:51 47° ENE 03:55:29 10° SE
Cosmos 2208 Rocket 4.4 03:46:46 10° NNW 03:51:38 42° WSW 03:54:13 25° SSW
Cosmos 1464 Rocket 4.5 03:48:04 10° NNW 03:53:44 40° W 03:56:56 23° SW
Cosmos 1869 3.4 03:54:36 10° NNW 03:58:34 57° W 04:00:43 25° SSW
DELTA 2 R/B (1) 3.5 03:55:50 18° W 04:00:03 84° S 04:05:37 10° E
CZ-3A R/B 3.5 03:57:29 10° NNW 04:00:18 36° NE 04:08:17 10° ESE
IRS-1D 3.9 03:55:36 10° N 04:00:45 51° WNW 04:03:55 23° SW
ADEOS Rocket 3.9 03:54:39 10° N 04:01:54 54° WNW 04:07:32 19° SW
Cosmos 2333 Rocket 4.1 04:05:54 10° W 04:07:13 11° W 04:07:13 11° W
CZ-2D R/B 3.4 04:04:04 10° NNE 04:08:09 87° ESE 04:11:17 17° SSW
Cosmos 1763 Rocket 3.8 04:04:26 10° NNW 04:09:41 69° ENE 04:14:48 10° SSE
Okean O Rocket 3.7 04:06:27 10° NE 04:09:57 23° E 04:13:26 10° SSE
BREEZE-M R/B 3.7 04:06:58 19° SW 04:12:09 65° SE 04:15:58 10° ENE
Cosmos 2297 Rocket 3.8 04:09:18 13° W 04:12:50 22° NW 04:17:07 10° N
Cosmos 1634 Rocket 4.1 04:06:49 10° N 04:13:01 80° E 04:19:11 10° S
Sich 1 3.8 04:11:32 22° SW 04:13:44 36° WNW 04:17:47 10° N
Cosmos 1814 Rocket 4.0 04:08:24 10° NNW 04:13:46 83° WSW 04:19:07 10° SSE
Cosmos 1633 Rocket 3.5 04:11:34 22° SW 04:13:58 43° WNW 04:18:08 10° N
Cosmos 1470 Rocket 3.5 04:11:04 15° S 04:14:35 89° W 04:18:56 10° N
Cosmos 1603 3.9 04:09:35 10° NNW 04:15:20 76° ENE 04:20:59 10° SSE
ATLAS 2AS CENTAUR R/B 4.4 04:14:43 10° WNW 04:17:47 13° W 04:18:33 13° WSW
NOSS 3-4 (A) 3.8 04:12:56 10° NW 04:19:56 63° WSW 04:27:23 10° SSE
NOSS 3-4 (C) 3.8 04:13:02 10° NW 04:20:02 64° WSW 04:27:30 10° SSE
UNKNOWN OBJECT B 3.2 04:21:36 10° N 04:25:27 46° WNW 04:28:17 16° SW
Cosmos 332 Rocket 3.8 04:21:31 10° NNW 04:26:18 60° WSW 04:31:04 10° S
MOS 1 Rocket 3.7 04:24:15 10° N 04:29:23 63° WNW 04:34:34 11° SSW
BREEZE-M DEB (TANK) 4.3 04:22:56 10° W 04:29:59 41° NNW 04:33:04 10° ENE
SL-16 R/B 3.5 04:28:29 14° SW 04:32:38 27° W 04:37:46 10° NW
Cosmos 220 Rocket 4.1 04:28:59 14° SSW 04:32:46 70° WNW 04:37:14 10° NNE
ATLAS 5 CENTAUR R/B 2.2 04:31:07 10° SSW 04:35:34 58° ESE 04:40:30 10° NE
SL-16 R/B 3.3 04:31:32 10° NW 04:36:01 25° WSW 04:40:30 10° SSW
SL-24 R/B 3.7 04:33:37 10° N 04:37:25 68° WNW 04:41:02 10° SSW
Cosmos 1315 Rocket 3.7 04:33:58 10° S 04:37:53 49° E 04:41:46 10° NNE
Cosmos 1354 Rocket 4.2 04:34:20 10° S 04:39:36 74° ESE 04:44:53 10° NNE
CZ-4B R/B 4.2 04:35:10 10° NNE 04:40:15 44° E 04:45:23 10° S
Resurs 1-4 Rocket 3.5 04:37:43 10° NNW 04:41:47 23° WNW 04:45:49 10° WSW
USA 102 2.5 04:41:28 10° NNE 04:44:48 85° ESE 04:46:02 17° SSW
ARIANE 5 R/B 4.0 04:41:29 10° NNW 04:45:16 21° WNW 04:49:01 10° WSW
ADEOS II 2.4 04:43:08 10° NNE 04:48:25 71° ESE 04:53:38 10° S
Cosmos 540 Rocket 4.0 04:49:57 10° NNW 04:55:06 64° ENE 05:00:13 10° SSE
Meteor 2-3 Rocket 3.8 04:51:58 10° S 04:57:39 85° W 05:03:26 10° N
USA 161 2.8 05:00:42 10° WSW 05:01:30 12° W 05:02:17 10° WNW
Cosmos 2221 Rocket 4.2 04:57:39 10° N 05:02:11 64° E 05:06:39 10° SSE
IRS-1C Rocket 4.4 04:56:55 10° NNE 05:02:13 72° ESE 05:07:28 10° S
Cosmos 1943 3.3 04:56:51 10° NNW 05:02:30 90° WSW 05:08:09 10° SSE
CZ-2D R/B 4.0 05:00:43 10° NNW 05:03:32 15° WNW 05:06:22 10° W
Cosmos 1933 4.4 05:00:33 10° NNW 05:04:04 28° W 05:07:35 10° SSW
Cosmos 1892 2.8 05:01:29 10° SSW 05:05:13 56° W 05:09:00 10° N
